Weather reports worldwide

Advertisment
Boscombe Down, United Kingdom (3746): temperature & dewpoint: 20.05.2019 19:00:00 - 26.05.2019 19:00:00 (BST)Boscombe Down, United Kingdom (3746): wind speed: 20.05.2019 19:00:00 - 26.05.2019 19:00:00 (BST)Boscombe Down, United Kingdom (3746): wind direction: 20.05.2019 19:00:00 - 26.05.2019 19:00:00 (BST)Boscombe Down, United Kingdom (3746): reduced air pressure: 20.05.2019 19:00:00 - 26.05.2019 19:00:00 (BST)Boscombe Down, United Kingdom (3746): visibility: 20.05.2019 19:00:00 - 26.05.2019 19:00:00 (BST)Boscombe Down, United Kingdom (3746): precipitation: 20.05.2019 19:00:00 - 26.05.2019 19:00:00 (BST)
Date & Time tt [°C] td [°C] ff [km/h] ff [kn] dd ppp [hPa] vv [km] rr [mm]
26.05.2019 19:00:00 17,0 12,3 26 14 W 1012,1 50 -
26.05.2019 18:00:00 16,9 13,0 21 11 W 1012,2 40 0,0
26.05.2019 17:00:00 16,0 13,3 21 11 W 1012,8 50 0,0
26.05.2019 16:00:00 16,7 14,6 18 10 W 1013,0 10 0,2
26.05.2019 15:00:00 15,9 14,4 13 7 W 1013,6 3,4 0,2
26.05.2019 14:00:00 17,4 13,4 24 13 W 1013,5 10 0,0
26.05.2019 13:00:00 17,3 13,6 26 14 WSW 1014,1 35 0,0
26.05.2019 12:00:00 16,6 13,3 18 10 WSW 1014,6 10 0,0
26.05.2019 11:00:00 15,8 12,7 18 10 WSW 1015,0 30 0,0
26.05.2019 10:00:00 14,6 12,3 18 10 WSW 1015,4 16 0,0
26.05.2019 09:00:00 13,7 11,5 16 9 WSW 1015,9 40 0,0
26.05.2019 08:00:00 13,1 11,1 18 10 WSW 1016,0 40 0,0
26.05.2019 07:00:00 13,1 11,4 16 9 WSW 1016,1 50 0,0
26.05.2019 06:00:00 12,4 11,2 16 9 W 1016,4 28 0,0
26.05.2019 05:00:00 11,9 10,7 16 9 W 1016,6 30 0,0
26.05.2019 04:00:00 12,5 11,4 16 9 W 1016,9 23 0,0
26.05.2019 03:00:00 11,9 11,2 11 6 W 1017,4 13 0,0
26.05.2019 02:00:00 11,6 10,5 8 4 WSW 1017,8 15 0,0
26.05.2019 01:00:00 12,3 10,5 16 9 W 1018,1 27 0,0
26.05.2019 00:00:00 13,6 10,5 16 9 WNW 1018,5 50 0,0
25.05.2019 23:00:00 13,8 9,7 16 9 W 1018,7 50 0,0
25.05.2019 22:00:00 14,4 9,1 9 5 W 1018,8 50 0,0
25.05.2019 21:00:00 16,1 8,9 15 8 WNW 1018,5 50 0,0
25.05.2019 20:00:00 18,4 10,0 16 9 WNW 1018,1 40 0,0
25.05.2019 19:00:00 19,8 10,4 16 9 W 1018,0 50 0,0
25.05.2019 18:00:00 19,7 9,5 24 13 WNW 1018,1 45 0,0
25.05.2019 17:00:00 21,1 10,2 16 9 WNW 1018,1 27 0,0
25.05.2019 16:00:00 20,9 10,4 16 9 W 1018,3 29 0,0
25.05.2019 15:00:00 20,9 10,4 15 8 W 1018,5 10 0,0
25.05.2019 14:00:00 20,4 10,1 15 8 W 1018,8 29 0,0
25.05.2019 13:00:00 20,8 11,4 9 5 WNW 1019,2 40 0,0
25.05.2019 12:00:00 18,2 10,4 11 6 NW 1019,5 30 0,0
25.05.2019 11:00:00 16,9 12,8 8 4 WNW 1020,1 10 0,0
25.05.2019 10:00:00 14,2 11,5 13 7 WNW 1020,6 15 0,0
25.05.2019 09:00:00 12,8 11,1 16 9 NW 1020,5 10 0,0
25.05.2019 08:00:00 13,6 11,3 15 8 WNW 1020,0 10 0,0
25.05.2019 07:00:00 12,7 11,2 15 8 WNW 1019,7 14 0,0
25.05.2019 06:00:00 11,5 10,6 11 6 NW 1019,6 9 0,0
25.05.2019 05:00:00 11,6 10,5 11 6 WNW 1019,4 10 0,0
25.05.2019 04:00:00 12,1 10,7 11 6 NW 1019,5 16 0,0
25.05.2019 03:00:00 12,1 10,9 11 6 WNW 1019,6 15 0,0
25.05.2019 02:00:00 12,2 10,7 8 4 WNW 1019,3 17 0,0
25.05.2019 01:00:00 13,3 11,3 9 5 WNW 1019,4 20 0,0
25.05.2019 00:00:00 13,7 11,6 11 6 NW 1019,5 28 0,0
24.05.2019 23:00:00 14,1 11,5 13 7 WNW 1019,2 30 0,0
24.05.2019 22:00:00 14,8 12,1 9 5 WNW 1019,0 10 0,0
24.05.2019 21:00:00 15,4 12,5 9 5 WNW 1018,6 28 0,0
24.05.2019 20:00:00 16,0 12,3 13 7 NW 1018,3 28 0,0
24.05.2019 19:00:00 16,9 11,7 15 8 NW 1018,0 35 0,0
24.05.2019 18:00:00 18,0 10,4 15 8 NW 1017,9 50 0,0
24.05.2019 17:00:00 18,3 10,1 16 9 NW 1018,0 40 0,0
24.05.2019 16:00:00 19,8 8,2 18 10 NW 1017,9 10 0,0
24.05.2019 15:00:00 19,5 8,5 16 9 W 1018,0 35 0,0
24.05.2019 14:00:00 20,5 8,3 11 6 WNW 1018,0 10 0,0
24.05.2019 13:00:00 20,5 8,3 11 6 NW 1018,2 10 0,0
24.05.2019 12:00:00 19,1 8,6 8 4 N 1018,3 35 0,0
24.05.2019 11:00:00 17,8 8,5 15 8 NW 1018,6 10 0,0
24.05.2019 10:00:00 16,2 9,9 13 7 WNW 1018,8 10 0,0
24.05.2019 09:00:00 15,0 9,8 13 7 NNW 1018,5 10 0,0
24.05.2019 08:00:00 13,0 8,9 15 8 NNW 1018,2 10 0,0
24.05.2019 07:00:00 11,4 8,1 13 7 NNW 1018,1 40 0,0
24.05.2019 06:00:00 10,9 7,7 8 4 NNW 1017,7 45 0,0
24.05.2019 05:00:00 11,0 7,6 13 7 NW 1017,6 50 0,0
24.05.2019 04:00:00 11,3 7,6 13 7 NW 1017,2 50 0,0
24.05.2019 03:00:00 11,3 8,4 9 5 NW 1017,0 50 0,0
24.05.2019 02:00:00 10,5 8,8 11 6 NW 1017,0 35 0,0
24.05.2019 01:00:00 9,9 8,3 13 7 WNW 1016,9 30 0,0
24.05.2019 00:00:00 10,6 8,3 8 4 W 1016,8 30 0,0
23.05.2019 23:00:00 11,7 8,2 9 5 NW 1016,7 50 0,0
23.05.2019 22:00:00 12,3 8,2 18 10 W 1016,5 10 0,0
23.05.2019 21:00:00 13,7 6,9 16 9 WNW 1016,3 50 0,0
23.05.2019 20:00:00 16,1 8,1 18 10 W 1015,4 50 0,0
23.05.2019 19:00:00 18,0 9,3 15 8 W 1015,0 50 0,0
23.05.2019 18:00:00 19,0 9,4 21 11 SW 1014,9 10 0,0
23.05.2019 17:00:00 19,5 8,1 21 11 SW 1014,8 10 0,0
23.05.2019 16:00:00 20,5 7,6 13 7 WSW 1015,0 10 0,0
23.05.2019 15:00:00 20,8 6,4 15 8 WSW 1015,1 40 0,0
23.05.2019 14:00:00 20,0 6,9 9 5 S 1015,4 10 0,0
23.05.2019 13:00:00 20,0 7,6 9 5 SSW 1015,9 40 0,0
23.05.2019 12:00:00 18,7 7,7 9 5 S 1016,4 10 0,0
23.05.2019 11:00:00 17,9 6,8 5 3 S 1016,8 10 0,0
23.05.2019 10:00:00 16,4 5,5 4 2 SE 1017,2 10 0,0
23.05.2019 09:00:00 14,5 8,6 2 1 E 1017,4 10 0,0
23.05.2019 08:00:00 11,7 7,4 4 2 E 1017,7 10 0,0
23.05.2019 07:00:00 9,2 6,9 8 4 ENE 1017,8 10 0,0
23.05.2019 06:00:00 7,1 5,3 5 3 SE 1017,9 16 0,0
23.05.2019 05:00:00 6,4 4,4 5 3 S 1018,2 10 0,0
23.05.2019 04:00:00 6,9 4,4 5 3 SSE 1018,1 50 0,0
23.05.2019 03:00:00 7,4 4,3 5 3 S 1018,5 10 0,0
23.05.2019 02:00:00 8,4 4,9 4 2 SSW 1018,7 50 0,0
23.05.2019 01:00:00 8,8 5,2 8 4 S 1018,9 50 0,0
23.05.2019 00:00:00 9,3 5,2 8 4 S 1019,1 50 0,0
22.05.2019 23:00:00 10,3 4,6 8 4 S 1019,1 50 0,0
22.05.2019 22:00:00 11,7 4,6 11 6 SSW 1019,2 50 0,0
22.05.2019 21:00:00 13,5 3,9 9 5 SW 1018,8 50 0,0
22.05.2019 20:00:00 15,4 4,4 15 8 SW 1018,4 50 0,0
22.05.2019 19:00:00 17,6 4,5 16 9 S 1018,4 45 0,0
22.05.2019 18:00:00 19,0 6,3 21 11 S 1018,5 10 0,0
22.05.2019 17:00:00 19,2 6,1 18 10 SSW 1018,6 10 0,0
22.05.2019 16:00:00 19,1 6,7 15 8 SW 1019,0 10 0,0
22.05.2019 15:00:00 19,2 7,1 15 8 SSW 1019,4 10 0,0
22.05.2019 14:00:00 20,0 7,7 13 7 SSW 1019,6 40 0,0
22.05.2019 13:00:00 18,8 7,5 15 8 SSW 1019,9 10 0,0
22.05.2019 12:00:00 17,6 4,9 11 6 SSW 1020,1 10 0,0
22.05.2019 11:00:00 16,4 4,8 8 4 S 1020,6 40 0,0
22.05.2019 10:00:00 16,1 5,2 5 3 SE 1020,6 10 0,0
22.05.2019 09:00:00 14,3 5,5 5 3 ESE 1020,8 35 0,0
22.05.2019 08:00:00 10,8 6,9 8 4 NNW 1020,9 10 0,0
22.05.2019 07:00:00 8,7 6,9 8 4 NNW 1020,7 10 0,0
22.05.2019 06:00:00 7,6 5,2 8 4 NNW 1020,7 45 0,0
22.05.2019 05:00:00 8,0 5,4 9 5 NW 1020,7 35 0,0
22.05.2019 04:00:00 7,9 5,3 9 5 NNW 1020,8 50 0,0
22.05.2019 03:00:00 8,1 5,7 11 6 WNW 1020,8 35 0,0
22.05.2019 02:00:00 9,6 6,6 5 3 NW 1020,6 50 0,0
22.05.2019 01:00:00 10,2 6,4 5 3 NW 1020,5 50 0,0
22.05.2019 00:00:00 10,9 6,7 9 5 WNW 1020,5 10 0,0
21.05.2019 23:00:00 11,7 6,5 9 5 NW 1020,5 50 0,0
21.05.2019 22:00:00 12,8 6,8 9 5 WNW 1020,2 50 0,0
21.05.2019 21:00:00 15,1 6,9 11 6 WNW 1019,8 40 0,0
21.05.2019 20:00:00 16,9 5,5 9 5 N 1019,2 45 0,0
21.05.2019 19:00:00 17,7 5,1 15 8 N 1019,2 10 0,0
21.05.2019 18:00:00 19,4 4,1 9 5 NNW 1018,9 10 0,0
21.05.2019 17:00:00 19,2 6,5 15 8 N 1019,1 10 0,0
21.05.2019 16:00:00 18,9 5,1 8 4 NW 1019,1 10 0,0
21.05.2019 15:00:00 18,8 5,2 11 6 NW 1019,1 10 0,0
21.05.2019 14:00:00 19,0 6,7 11 6 NW 1019,2 10 0,0
21.05.2019 13:00:00 18,1 5,5 13 7 N 1019,2 40 0,0
21.05.2019 12:00:00 17,7 6,9 11 6 NNW 1019,2 10 0,0
21.05.2019 11:00:00 16,5 8,3 13 7 N 1019,3 10 0,0
21.05.2019 10:00:00 15,4 8,2 13 7 NNW 1019,3 10 0,0
21.05.2019 09:00:00 13,9 7,4 16 9 NNW 1019,1 10 0,0
21.05.2019 08:00:00 11,6 7,3 16 9 NNW 1018,8 10 0,0
21.05.2019 07:00:00 8,9 7,0 11 6 NW 1018,6 10 0,0
21.05.2019 06:00:00 6,4 5,7 4 2 WNW 1018,3 27 0,0
21.05.2019 05:00:00 6,4 5,6 11 6 WNW 1018,0 12 0,0
21.05.2019 04:00:00 6,5 5,6 9 5 WNW 1017,7 9 0,0
21.05.2019 03:00:00 7,5 6,1 5 3 NW 1017,4 45 0,0
21.05.2019 02:00:00 8,9 7,2 15 8 WNW 1016,9 40 0,0
21.05.2019 01:00:00 9,5 7,3 11 6 WNW 1016,9 50 0,0
21.05.2019 00:00:00 10,9 7,3 15 8 NNW 1016,5 50 0,0
20.05.2019 23:00:00 12,7 8,1 15 8 NW 1016,3 50 0,0
20.05.2019 22:00:00 14,1 9,5 11 6 WNW 1015,8 50 0,0
20.05.2019 21:00:00 15,1 9,0 15 8 W 1014,9 50 0,0
20.05.2019 20:00:00 17,0 7,4 8 4 WNW 1014,4 50 0,0
20.05.2019 19:00:00 17,6 7,2 5 3 NW 1014,0 40 0,0

tt = temperature
td = dewpoint
ff = wind speed
dd = wind direction
ppp = reduced air pressure
vv = visibility
rr = precipitation

Next stations